Regional Weather Roundup
Issued by NWS

Home | Current Version | Previous Version | Text Only | Print | Product List | Glossary Off
Versions: 1 2 3 4 5 6 7 8 9 10 11 12 13 14 15 16 17 18 19 20 21 22 23 24 25 26 27 28 29 30 31 32 33 34 35 36 37 38 39 40 41 42 43 44 45 46 47 48 49 50

000
ASUS43 KFSD 020310
RWRSD

WEATHER ROUNDUP FOR SOUTH DAKOTA
NATIONAL WEATHER SERVICE SIOUX FALLS SD
1000 PM CDT WED APR 01 2015

NOTE: "FAIR" INDICATES FEW OR NO CLOUDS BELOW 12,000 FEET WITH NO
SIGNIFICANT WEATHER AND/OR OBSTRUCTIONS TO VISIBILITY.


SDZ001>005-009-010-012>017-020400-
NORTHWEST AND NORTH CENTRAL SOUTH DAKOTA

CITY           SKY/WX    TMP DP  RH WIND       PRES   REMARKS
BUFFALO          N/A     38  12  34 NW9       29.76R
FAITH            N/A     40   8  26 W9        29.81R
MOBRIDGE       CLEAR     42  26  53 NW7       29.73R
$$

SDZ012>016-024>037-041>051-057-063-072>074-020400-
SOUTHWEST AND SOUTH CENTRAL SOUTH DAKOTA

CITY           SKY/WX    TMP DP  RH WIND       PRES   REMARKS
RAPID CTY ARPT PTCLDY    34  13  41 NW8       29.85R WCI  27
PIERRE         MOCLDY    50  24  36 NW9       29.77R
CUSTER         PTCLDY    33   9  36 W3        29.88R
ELLSWORTH AFB  PTCLDY    39  11  32 NW7       29.85R
PHILIP         MOCLDY    49  11  21 NW6       29.83R
PINE RIDGE     CLOUDY    45  19  35 N5        29.87R
SPEARFISH      FAIR      37  10  32 W9        29.87R
WINNER         FAIR      50  20  30 NW12      29.77R
$$

SDZ004>011-016>023-039-040-020400-
NORTHEAST SOUTH DAKOTA

CITY           SKY/WX    TMP DP  RH WIND       PRES   REMARKS
ABERDEEN       PTCLDY    51  30  44 NW13      29.69R
WATERTOWN      CLEAR     53  31  42 NW13      29.65R
BROOKINGS      PTCLDY    54  34  47 NW13      29.64R
SISSETON         N/A     54  33  45 NW28G36   29.61R
$$

SDZ017-020-022-023-036>040-048>070-020400-
SOUTHEAST SOUTH DAKOTA

CITY           SKY/WX    TMP DP  RH WIND       PRES   REMARKS
SIOUX FALLS    CLOUDY    61  32  33 N20G25    29.64R
HURON          CLEAR     51  27  39 NW16      29.68R
CHAMBERLAIN    MOCLDY    52  23  32 NW15G22   29.74R
MITCHELL       PTCLDY    57  26  30 NW21      29.68R
YANKTON        CLOUDY    61  32  33 N16G23    29.66R
$$

ABBREVIATIONS USED IN REMARKS
   TC - TEMPERATURE IN CELSIUS
  WCI - WIND CHILL INDEX
   HX - HEAT INDEX
  VSB - VISIBILITY



USA.gov is the U.S. government's official web portal to all federal, state and local government web resources and services.